TimePST,TemperatureF,Dew PointF,Humidity,Sea Level PressureIn,VisibilityMPH,Wind Direction,Wind SpeedMPH,Gust SpeedMPH,PrecipitationIn,Events,Conditions,WindDirDegrees,DateUTC
12:00 AM,41.5,38.5,89,30.11,-9999.0,NNW,6.9,-,N/A,,Unknown,330,2014-01-29 08:00:00
1:00 AM,40.6,38.1,91,30.09,-9999.0,NNW,10.4,-,N/A,,Unknown,330,2014-01-29 09:00:00
2:00 AM,39.7,37.6,92,30.08,-9999.0,NNW,8.1,-,N/A,,Unknown,330,2014-01-29 10:00:00
3:00 AM,39.9,37.0,89,30.07,-9999.0,NW,9.2,-,N/A,,Unknown,310,2014-01-29 11:00:00
4:00 AM,40,37,84,30.05,,NW,12.7,,,,,320,2014-01-29 12:00:00
4:00 AM,40.5,36.9,87,30.05,-9999.0,NW,12.7,19.6,N/A,,Unknown,320,2014-01-29 12:00:00
5:00 AM,39.2,35.6,87,30.04,-9999.0,WNW,9.2,-,N/A,,Unknown,290,2014-01-29 13:00:00
6:00 AM,37.2,35.4,93,30.04,-9999.0,West,6.9,-,N/A,,Unknown,280,2014-01-29 14:00:00
7:00 AM,36.7,35.8,97,30.03,-9999.0,West,8.1,-,N/A,,Unknown,280,2014-01-29 15:00:00
8:00 AM,40.6,31.3,69,30.01,-9999.0,West,8.1,-,N/A,,Unknown,280,2014-01-29 16:00:00
9:00 AM,43.0,26.6,52,30.01,-9999.0,West,9.2,-,N/A,,Unknown,280,2014-01-29 17:00:00
10:00 AM,46,26,33,30.01,,NW,12.7,,,,,320,2014-01-29 18:00:00
10:00 AM,45.5,26.1,47,30.01,-9999.0,NW,12.7,20.7,N/A,,Unknown,320,2014-01-29 18:00:00
11:00 AM,46.0,27.3,48,30.00,-9999.0,NW,13.8,21.9,N/A,,Unknown,320,2014-01-29 19:00:00
12:00 PM,46.9,28.8,49,29.99,-9999.0,WNW,11.5,-,N/A,,Unknown,290,2014-01-29 20:00:00
1:00 PM,48.9,28.6,45,29.97,-9999.0,NW,10.4,-,N/A,,Unknown,320,2014-01-29 21:00:00
2:00 PM,48.7,28.0,45,29.97,-9999.0,NW,10.4,-,N/A,,Unknown,310,2014-01-29 22:00:00
3:00 PM,48.0,31.3,52,29.97,-9999.0,NW,8.1,-,N/A,,Unknown,310,2014-01-29 23:00:00
4:00 PM,47,30,40,29.97,,NW,10.4,,,,,320,2014-01-30 00:00:00
4:00 PM,47.3,30.2,52,29.97,-9999.0,NW,10.4,-,N/A,,Unknown,320,2014-01-30 00:00:00
5:00 PM,46.8,30.9,54,29.97,-9999.0,NW,11.5,18.4,N/A,,Unknown,320,2014-01-30 01:00:00
6:00 PM,45.7,30.9,56,29.96,-9999.0,NW,9.2,-,N/A,,Unknown,310,2014-01-30 02:00:00
7:00 PM,45.0,31.5,59,29.95,-9999.0,NW,6.9,-,N/A,,Unknown,320,2014-01-30 03:00:00
8:00 PM,43.3,36.7,77,29.96,-9999.0,NNW,12.7,-,N/A,,Unknown,340,2014-01-30 04:00:00
9:00 PM,42.6,35.6,76,29.96,-9999.0,NNW,10.4,-,N/A,,Unknown,340,2014-01-30 05:00:00
10:00 PM,43,35,63,29.96,,NNW,9.2,,,,,340,2014-01-30 06:00:00
10:00 PM,42.8,34.5,73,29.96,-9999.0,NNW,9.2,-,N/A,,Unknown,340,2014-01-30 06:00:00
11:00 PM,43.2,31.5,63,29.95,-9999.0,NW,6.9,-,N/A,,Unknown,320,2014-01-30 07:00:00